Regional Weather Roundup
Issued by NWS

Home | Current Version | Previous Version | Text Only | Print | Product List | Glossary On
Versions: 1 2 3 4 5 6 7 8 9 10 11 12 13 14 15 16 17 18 19 20 21 22 23 24 25 26 27 28 29 30 31 32 33 34 35 36 37 38 39 40 41 42 43 44 45 46 47 48 49 50
000
ASUS42 KFFC 281803
RWRGA
WEATHER ROUNDUP FOR GEORGIA
NATIONAL WEATHER SERVICE PEACHTREE CITY GA
200 PM EDT SAT MAR 28 2015

NOTE: "FAIR" INDICATES FEW OR NO CLOUDS BELOW 12,000 FEET WITH NO
SIGNIFICANT WEATHER AND/OR OBSTRUCTIONS TO VISIBILITY.

* = USE WITH CAUTION. THE STATIONS MARKED WITH AN ASTERISK MAY NOT
REPORT WEATHER SUCH AS PRECIPITATION, FOG, OR THUNDER AND ARE NOT
QUALITY CONTROLLED BY NWS.

THE REMARK "TC" DENOTES TEMPERATURE READING IN DEGREES CELSIUS.

GAZ001>058-281900-
NORTH GEORGIA

CITY           SKY/WX    TMP DP  RH WIND       PRES   REMARKS
ATLANTA        SUNNY     49  15  25 NW13G22   30.16R
6HR MIN TEMP:  36; 6HR MAX TEMP:  49; 6HR PCP:  0.02;

ATHENS         SUNNY     52  16  24 W12       30.11F
6HR MIN TEMP:  36; 6HR MAX TEMP:  52;

CHAMBLEE       SUNNY     48  17  29 NW17G23   30.15S
6HR MIN TEMP:  33; 6HR MAX TEMP:  49;

PEACHTREE CITY SUNNY     50  14  23 NW13G21   30.18S
6HR MIN TEMP:  36; 6HR MAX TEMP:  50;

ROME           SUNNY     49  17  28 N9        30.19F
6HR MIN TEMP:  33; 6HR MAX TEMP:  49;

WEST ATLANTA   SUNNY     48  16  27 W14G24    30.16F
6HR MIN TEMP:  36; 6HR MAX TEMP:  48;

GAINESVILLE    SUNNY     48  15  26 W15       30.12S
6HR MIN TEMP:  34; 6HR MAX TEMP:  48;

CARTERSVILLE   SUNNY     47  19  33 VRB5      30.19S
6HR MIN TEMP:  33; 6HR MAX TEMP:  47;



CITY           SKY/WX    TMP DP  RH WIND       PRES   REMARKS
DALTON*        SUNNY     45  23  42 CALM      30.20S
LAWRENCEVILLE* SUNNY     46  28  49 W8G17     30.12F
MARIETTA       MOSUNNY   48  15  27 W14G20    30.16R
KENNESAW*      SUNNY     45  16  31 NW14G22   30.17F
$$

GAZ059>098-102>109-281900-
CENTRAL GEORGIA

CITY           SKY/WX    TMP DP  RH WIND       PRES   REMARKS
AUGUSTA-BUSH   SUNNY     54  24  31 NW12G17   30.10F
6HR MIN TEMP:  40; 6HR MAX TEMP:  55;

AUGUSTA-DANIEL SUNNY     54  23  30 NW10G18   30.10F
6HR MIN TEMP:  41; 6HR MAX TEMP:  54;

COLUMBUS       SUNNY     52  22  30 NW12G18   30.20S
6HR MIN TEMP:  37; 6HR MAX TEMP:  52;

MACON          SUNNY     54  22  28 NW13G18   30.16R
6HR MIN TEMP:  37; 6HR MAX TEMP:  54;

ROBINS AFB     SUNNY     55  22  27 NW12G17   30.16R


CITY           SKY/WX    TMP DP  RH WIND       PRES   REMARKS
LAGRANGE*      SUNNY     53  26  35 CALM      30.19S
SYLVANIA*      SUNNY     55  31  41 W7G20     30.11F
MILLEDGEVILLE* SUNNY     52  28  40 NW3       30.14S
$$

GAZ099>101-110>166-281900-
SOUTH GEORGIA

CITY           SKY/WX    TMP DP  RH WIND       PRES   REMARKS
SAVANNAH       MOSUNNY   57  28  33 W17G26    30.10F
6HR MIN TEMP:  44; 6HR MAX TEMP:  58;

VALDOSTA       SUNNY     57  31  37 NW8       30.17F
6HR MIN TEMP:  39; 6HR MAX TEMP:  58;

ALMA           SUNNY     55  28  35 NW13G20   30.14F
6HR MIN TEMP:  42; 6HR MAX TEMP:  55;

ST SIMONS      SUNNY     58  31  35 W9G18     30.13S
6HR MIN TEMP:  46; 6HR MAX TEMP:  58;

FT STEWART     SUNNY     56  29  35 W9G21     30.10F
ALBANY         SUNNY     55  28  35 VRB6      30.21S
HUNTER AFB     MOSUNNY   57  31  36 W18       30.08F
MOODY AFB      SUNNY     57  30  36 W13G20    30.15F
BRUNSWICK      SUNNY     59  30  33 W15G22    30.14S


CITY           SKY/WX    TMP DP  RH WIND       PRES   REMARKS
BAINBRIDGE*    SUNNY     59  32  36 NW17      30.22F
MOULTRIE*      SUNNY     55  32  41 W12G17    30.19S
VIDALIA*       SUNNY     55  32  41 W8        30.13F
WAYCROSS*      SUNNY     60  34  37 W12G21    30.14F
DOUGLAS*       SUNNY     55  30  38 NW9G18    30.16F
$$


USA.gov is the U.S. government's official web portal to all federal, state and local government web resources and services.